Regional Weather Roundup
Issued by NWS Newport/Morehead, NC

Current Version | Previous Version | Graphics & Text | Print | Product List | Glossary On
Versions: 1 2 3 4 5 6 7 8 9 10 11 12 13 14 15 16 17 18 19 20 21 22 23 24 25 26 27 28 29 30 31 32 33 34 35 36 37 38 39 40 41 42 43 44 45 46 47 48 49 50
000 ASUS42 KMHX 022328 RWRMHX WEATHER ROUNDUP FOR EASTERN NORTH CAROLINA NATIONAL WEATHER SERVICE NEWPORT/MOREHEAD CITY NC 600 PM EST MON MAR 02 2015 NOTE: "FAIR" INDICATES FEW OR NO CLOUDS BELOW 12,000 FEET WITH NO SIGNIFICANT WEATHER AND/OR OBSTRUCTIONS TO VISIBILITY NCZ015>017-031-032-045>047-102-103-030000- NORTH COAST CITY SKY/WX TMP DP RH WIND PRES REMARKS EDENTON PTCLDY 41 35 79 E7 30.32R ELIZABETH CITY MOCLDY 41 31 67 E7 30.31R KITTY HAWK MOCLDY 38 34 87 NE5 30.30R MANTEO MOCLDY 39 32 75 N9 30.31R $$ NCZ045>047-081-094-103-104-030000- CENTRAL COAST CITY SKY/WX TMP DP RH WIND PRES REMARKS FRISCO PTCLDY 40 34 79 NE8 30.31R SWANQUARTER N/A 43 N/A N/A NE7G20 30.27R $$ NCZ095-097-098-100-101-030000- SOUTHERN COAST CITY SKY/WX TMP DP RH WIND PRES REMARKS BEAUFORT CLEAR 45 37 73 E9 30.28R CEDAR ISLAND N/A 41 N/A N/A NE12G23 30.33S JACKSONVILLE NOT AVBL PINEY ISLAND N/A N/A N/A N/A MISG 30.29R WILMINGTON CLEAR 57 48 72 SE5 30.24R $$ NCZ011>013-027>030-043-044-078>080-089-090>093-098-030000- COASTAL PLAIN CITY SKY/WX TMP DP RH WIND PRES REMARKS AHOSKIE MOCLDY 47 37 66 CALM 30.30R CLINTON CLEAR 57 44 61 CALM 30.26R ELIZABETHTOWN CLEAR 58 48 68 CALM 30.25R GOLDSBORO CLEAR 59 44 57 N1 30.23R GREENVILLE CLEAR 52 43 71 E6 30.29R HAVELOCK CLEAR 46 36 68 E9 30.29R KENANSVILLE PTCLDY 56 39 53 CALM 30.27R KINSTON CLEAR 55 39 54 N5 30.26F NEW BERN CLEAR 49 38 65 E10 30.28R RICHLANDS CLEAR 55 43 62 CALM 30.26R ROCKY MOUNT PTCLDY 56 34 43 NW3 30.26R WASHINGTON PTCLDY 49 39 70 E10 30.30R WHITEVILLE CLEAR 60 49 67 CALM 30.24R $$ AMZ130-135-150-152-154-156-158-170-250-252-270-ANZ085-086-088-633-658-670-030000- MARINE OBSERVATIONS STATION/POSITION TIME TEMP WIND PRES WAVE SWELL AIR SEA DIR/SP/G HT/PER HT/PER (UTC) (F) (DEG/KT/KT) (MB) (FT/S) (FT/S) CHESAPEAKE LIGHT 2300 39 10/ 7/ 8 1027.5 64 E VA BEACH 2250 45 53 360/ 19/ 23 1025.2 5/ 5 DUCK 2300 38 35 30/ 7/ 9 1025.6 2 E DUCK 2211 35 N/A 2/ 8 10 NE DUCK 2222 37 N/A 2/ 8 OREGON INLET 2300 38 43 10/ 9/ 13 1026.1 HATTERAS CG 2300 41 44 30/ 10/ 14 1026.7 CAPE LOOKOUT 2300 46 50/ 23/ 26 1025.3 BEAUFORT LAB 2300 45 44 60/ 7/ 13 1024.4 27 SE WRIGHTSVLE NOT AVBL 5 SE WRIGHTSVLE NOT AVBL 225 S CAPE HAT 2250 72 73 300/ 16/ 19 1022.2 5/ 8 3/ 8 41 SE CHARLESTON 2250 62 68 250/ 8/ 12 1022.7 3/ 9 3/ 9 $$

USA.gov is the U.S. government's official web portal to all federal, state and local government web resources and services.